Location: Kermapucano
(48.0667°N, 3.3000°W)
Time: 20:42:22
(UTC+00:00)

ARGOS Delta rocket - Pass Details

Date: 29 November 2020
Orbit: 634 x 838 km, 96.5° (Epoch: 27 January)

Event Time Altitude Azimuth Distance (km) Brightness Sun altitude
Rises 05:36:38 0° 4° (N) 3,309 7.2 -19.9°
Reaches altitude 10° 05:39:11 10° 357° (N) 2,346 6.4 -19.5°
Maximum altitude 05:43:52 36° 292° (WNW) 1,182 4.4 -18.7°
Enters shadow 05:44:12 36° 283° (WNW) 1,187 4.4 -18.7°
